10.05.2024;22:00;14
10.05.2024;21:00;12
10.05.2024;20:00;8
10.05.2024;19:00;11
10.05.2024;18:00;11
10.05.2024;17:00;13
10.05.2024;16:00;12
10.05.2024;15:00;13
10.05.2024;14:00;14
10.05.2024;13:00;15
10.05.2024;12:00;16
10.05.2024;11:00;13
10.05.2024;10:00;20
10.05.2024;09:00;20
10.05.2024;08:00;19
10.05.2024;07:00;15
10.05.2024;06:00;15
10.05.2024;05:00;17
10.05.2024;04:00;14
10.05.2024;03:00;15
10.05.2024;02:00;12
10.05.2024;01:00;13
09.05.2024;24:00;25
09.05.2024;23:00;18
09.05.2024;22:00;16
09.05.2024;21:00;10
09.05.2024;20:00;8
09.05.2024;19:00;7
09.05.2024;18:00;6
09.05.2024;17:00;4
09.05.2024;16:00;2
09.05.2024;15:00;2
09.05.2024;14:00;2
09.05.2024;13:00;2
09.05.2024;12:00;8
09.05.2024;11:00;9
09.05.2024;10:00;7
09.05.2024;09:00;14
09.05.2024;08:00;15
09.05.2024;07:00;21
09.05.2024;06:00;16
09.05.2024;05:00;20
09.05.2024;04:00;19
09.05.2024;03:00;13
09.05.2024;02:00;15
09.05.2024;01:00;16
08.05.2024;24:00;12
08.05.2024;23:00;13
08.05.2024;22:00;10
08.05.2024;21:00;8
08.05.2024;20:00;15
08.05.2024;19:00;17
08.05.2024;18:00;9
08.05.2024;17:00;8
08.05.2024;16:00;9
08.05.2024;15:00;11
08.05.2024;14:00;10
08.05.2024;13:00;10
08.05.2024;12:00;13
08.05.2024;11:00;15
08.05.2024;10:00;19
08.05.2024;09:00;17
08.05.2024;08:00;19
08.05.2024;07:00;13
08.05.2024;06:00;16
08.05.2024;05:00;11
08.05.2024;04:00;6
08.05.2024;03:00;3
08.05.2024;02:00;13
08.05.2024;01:00;9
07.05.2024;24:00;7
07.05.2024;23:00;6
07.05.2024;22:00;9
07.05.2024;21:00;8
07.05.2024;20:00;6
07.05.2024;19:00;8
07.05.2024;18:00;9
07.05.2024;17:00;6
07.05.2024;16:00;5
07.05.2024;15:00;5
07.05.2024;14:00;4
07.05.2024;13:00;4
07.05.2024;12:00;9
07.05.2024;11:00;8
07.05.2024;10:00;5
07.05.2024;09:00;#
07.05.2024;08:00;4
07.05.2024;07:00;4
07.05.2024;06:00;5
07.05.2024;05:00;3
07.05.2024;04:00;2
07.05.2024;03:00;3
07.05.2024;02:00;3
07.05.2024;01:00;5
06.05.2024;24:00;3
06.05.2024;23:00;2
06.05.2024;22:00;2
06.05.2024;21:00;2
06.05.2024;20:00;2
06.05.2024;19:00;6
06.05.2024;18:00;8
06.05.2024;17:00;9
06.05.2024;16:00;7
06.05.2024;15:00;6
06.05.2024;14:00;5
06.05.2024;13:00;5
06.05.2024;12:00;6
06.05.2024;11:00;8
06.05.2024;10:00;8
06.05.2024;09:00;9
06.05.2024;08:00;11
06.05.2024;07:00;8
06.05.2024;06:00;8
06.05.2024;05:00;6
06.05.2024;04:00;6
06.05.2024;03:00;2
06.05.2024;02:00;5
06.05.2024;01:00;5
05.05.2024;24:00;7
05.05.2024;23:00;8
05.05.2024;22:00;6
05.05.2024;21:00;2
05.05.2024;20:00;2
05.05.2024;19:00;2
05.05.2024;18:00;2
05.05.2024;17:00;2
05.05.2024;16:00;2
05.05.2024;15:00;2
05.05.2024;14:00;2
05.05.2024;13:00;4
05.05.2024;12:00;2
05.05.2024;11:00;2
05.05.2024;10:00;2
05.05.2024;09:00;7
05.05.2024;08:00;8
05.05.2024;07:00;10
05.05.2024;06:00;13
05.05.2024;05:00;13
05.05.2024;04:00;17
05.05.2024;03:00;11
05.05.2024;02:00;17
05.05.2024;01:00;12
